sat.trackr.live / text

‹ back to catalog

KONDOR-FKA NO. 1

NORAD 56756 · 2023-074A

PAYLOAD ACTIVE UNKNOWN

§ Identity

Operator
Country
CIS
Launch date
2023-05-26
Launch site
VOSTO
Launch vehicle
Mass (kg)
RCS (m²)

External: N2YO · Heavens-Above · Gunter

§ Orbital elements

Epoch: 2026-05-25T04:11:34.033344Z

Period
94.75 min
Inclination
97.4431°
Eccentricity
0.0001747
Mean motion
15.19749649 rev/d
Perigee alt
505.4 km
Apogee alt
507.8 km
Semi-major
6,884.7 km
B*
1.5663e-4
RAAN
340.0643°
Arg perigee
93.4079°
Mean anomaly
266.7356°
Rev number
16,619

§ Raw data

KONDOR-FKA NO. 11 56756U 23074A   26145.17469946  .00003281  00000+0  15663-3 0  99962 56756  97.4431 340.0643 0001747  93.4079 266.7356 15.19749649166193

JSON: /api/v1/satellites/56756 · /tle

For live sub-satellite position, see the globe view (requires WebGL).

§ Visibility from observer

Set your observer location to see the next 7 days of passes ≥ 10°. The values pass through the URL so the page stays shareable.

No JS? Fill the form by hand. The geolocation button needs JavaScript.